When you browse on this site, cookies collect data to enhance your experience and personalize the content and advertising you see.
Visit our Privacy Policy to learn more. By continuing to use the site, you agree to this use of cookies and data.
  • In Hungary
  • List of Countries
  • For 7 days
  • Water Temperature
  • Satellite Maps
  • Weather Map
  • News
  • Weather Widgets
  • user-avatar
    Login

    Hourly Weather Kiruna

    Today, 24 June, Monday

    Time Temperature Precipitation Wind Pressure Humidity
    00:00 +6°C° 0 mm 1 mps 719 mmHg 89%
    01:00 +6°C° 0 mm 1 mps 719 mmHg 91%
    02:00 +7°C° 0 mm 1 mps 720 mmHg 88%
    03:00 +7°C° 0 mm 1 mps 720 mmHg 84%
    04:00 +8°C° 0 mm 1 mps 720 mmHg 81%
    05:00 +9°C° 0 mm 1 mps 721 mmHg 76%
    06:00 +10°C° 0 mm 1 mps 721 mmHg 71%
    07:00 +11°C° 0 mm 1 mps 722 mmHg 65%
    08:00 +12°C° 0.1 mm 1 mps 722 mmHg 60%
    09:00 +13°C° 0.1 mm 2 mps 722 mmHg 55%
    10:00 +14°C° 0.1 mm 2 mps 722 mmHg 50%
    11:00 +13°C° 0.1 mm 3 mps 722 mmHg 49%
    12:00 +13°C° 0.1 mm 3 mps 723 mmHg 48%
    13:00 +13°C° 0.1 mm 3 mps 723 mmHg 47%
    14:00 +13°C° 0.1 mm 4 mps 723 mmHg 48%
    15:00 +13°C° 0.1 mm 4 mps 723 mmHg 49%
    16:00 +12°C° 0.1 mm 5 mps 723 mmHg 50%
    17:00 +12°C° 0 mm 4 mps 723 mmHg 51%
    18:00 +11°C° 0 mm 4 mps 723 mmHg 52%
    19:00 +11°C° 0 mm 4 mps 723 mmHg 54%
    20:00 +9°C° 0 mm 3 mps 723 mmHg 61%
    21:00 +8°C° 0 mm 3 mps 723 mmHg 68%
    22:00 +7°C° 0 mm 2 mps 723 mmHg 75%
    23:00 +6°C° 0 mm 2 mps 723 mmHg 76%

    Tomorrow, 25 June, Tuesday

    Time Temperature Precipitation Wind Pressure Humidity
    00:00 +7°C° 0 mm 1 mps 723 mmHg 78%
    01:00 +6°C° 0 mm 1 mps 723 mmHg 79%
    02:00 +7°C° 0 mm 1 mps 723 mmHg 76%
    03:00 +7°C° 0 mm 1 mps 723 mmHg 73%
    04:00 +8°C° 0 mm 1 mps 723 mmHg 70%
    05:00 +9°C° 0 mm 1 mps 723 mmHg 65%
    06:00 +9°C° 0 mm 2 mps 723 mmHg 60%
    07:00 +10°C° 0 mm 2 mps 723 mmHg 56%
    08:00 +11°C° 0 mm 3 mps 723 mmHg 52%
    09:00 +11°C° 0 mm 3 mps 723 mmHg 49%
    10:00 +12°C° 0 mm 4 mps 723 mmHg 46%
    11:00 +12°C° 0 mm 3 mps 723 mmHg 45%
    12:00 +12°C° 0 mm 3 mps 723 mmHg 44%
    13:00 +13°C° 0 mm 3 mps 722 mmHg 44%
    14:00 +13°C° 0 mm 3 mps 722 mmHg 43%
    15:00 +13°C° 0 mm 3 mps 722 mmHg 43%
    16:00 +13°C° 0 mm 3 mps 722 mmHg 43%
    17:00 +13°C° 0 mm 3 mps 721 mmHg 45%
    18:00 +13°C° 0 mm 2 mps 721 mmHg 46%
    19:00 +13°C° 0 mm 2 mps 721 mmHg 47%
    20:00 +12°C° 0 mm 2 mps 721 mmHg 53%
    21:00 +9°C° 0 mm 2 mps 720 mmHg 59%
    22:00 +8°C° 0 mm 2 mps 720 mmHg 65%
    23:00 +7°C° 0 mm 2 mps 720 mmHg 67%

    Day after tomorrow, 26 June, Wednesday

    Time Temperature Precipitation Wind Pressure Humidity
    00:00 +7°C° 0 mm 2 mps 720 mmHg 70%
    01:00 +7°C° 0 mm 1 mps 719 mmHg 72%
    02:00 +8°C° 0 mm 1 mps 719 mmHg 70%
    03:00 +8°C° 0 mm 1 mps 719 mmHg 69%
    04:00 +9°C° 0 mm 1 mps 719 mmHg 67%
    05:00 +10°C° 0 mm 1 mps 718 mmHg 63%
    06:00 +11°C° 0 mm 1 mps 718 mmHg 58%
    07:00 +11°C° 0 mm 1 mps 718 mmHg 54%
    08:00 +12°C° 0 mm 2 mps 718 mmHg 51%
    09:00 +13°C° 0 mm 2 mps 718 mmHg 48%
    10:00 +14°C° 0 mm 2 mps 717 mmHg 44%
    11:00 +14°C° 0 mm 2 mps 717 mmHg 45%
    12:00 +13°C° 0 mm 3 mps 716 mmHg 45%
    13:00 +13°C° 0 mm 4 mps 716 mmHg 45%
    14:00 +13°C° 0 mm 4 mps 716 mmHg 45%
    15:00 +14°C° 0 mm 4 mps 715 mmHg 45%
    16:00 +14°C° 0 mm 4 mps 714 mmHg 44%
    17:00 +13°C° 0 mm 4 mps 714 mmHg 47%
    18:00 +12°C° 0 mm 4 mps 714 mmHg 50%
    19:00 +12°C° 0 mm 4 mps 713 mmHg 52%
    20:00 +11°C° 0 mm 4 mps 713 mmHg 57%
    21:00 +10°C° 0 mm 4 mps 713 mmHg 63%
    22:00 +8°C° 0 mm 4 mps 712 mmHg 68%
    23:00 +8°C° 0 mm 3 mps 712 mmHg 71%

    27 June, Thursday

    Time Temperature Precipitation Wind Pressure Humidity
    00:00 +7°C° 0 mm 3 mps 712 mmHg 75%
    01:00 +7°C° 0 mm 2 mps 712 mmHg 78%
    02:00 +7°C° 0 mm 3 mps 712 mmHg 76%
    03:00 +7°C° 0 mm 3 mps 712 mmHg 74%
    04:00 +7°C° 0 mm 3 mps 712 mmHg 72%
    05:00 +8°C° 0 mm 3 mps 712 mmHg 67%
    06:00 +8°C° 0 mm 4 mps 712 mmHg 62%
    07:00 +10°C° 0 mm 4 mps 712 mmHg 57%
    08:00 +10°C° 0.1 mm 4 mps 712 mmHg 56%
    09:00 +10°C° 0.1 mm 5 mps 713 mmHg 55%
    10:00 +10°C° 0.1 mm 5 mps 713 mmHg 54%
    11:00 +10°C° 0.1 mm 5 mps 713 mmHg 50%
    12:00 +12°C° 0.1 mm 5 mps 713 mmHg 46%
    13:00 +12°C° 0.1 mm 5 mps 713 mmHg 43%
    14:00 +11°C° 0 mm 6 mps 713 mmHg 40%
    15:00 +11°C° 0 mm 6 mps 713 mmHg 38%
    16:00 +10°C° 0 mm 6 mps 713 mmHg 36%
    17:00 +10°C° 0 mm 6 mps 713 mmHg 37%
    18:00 +9°C° 0 mm 6 mps 713 mmHg 38%
    19:00 +8°C° 0 mm 6 mps 713 mmHg 39%
    20:00 +6°C° 0 mm 4 mps 714 mmHg 45%
    21:00 +5°C° 0 mm 3 mps 714 mmHg 50%
    22:00 +5°C° 0 mm 2 mps 714 mmHg 55%
    23:00 +4°C° 0 mm 2 mps 714 mmHg 60%

    28 June, Friday

    Time Temperature Precipitation Wind Pressure Humidity
    00:00 +4°C° 0 mm 1 mps 714 mmHg 64%
    01:00 +2°C° 0 mm 0 mps 714 mmHg 68%
    02:00 +4°C° 0 mm 1 mps 714 mmHg 64%
    03:00 +4°C° 0 mm 2 mps 714 mmHg 59%
    04:00 +4°C° 0 mm 3 mps 714 mmHg 55%
    05:00 +5°C° 0 mm 3 mps 714 mmHg 53%
    06:00 +5°C° 0 mm 4 mps 714 mmHg 50%
    07:00 +6°C° 0 mm 4 mps 714 mmHg 48%
    08:00 +6°C° 0 mm 5 mps 714 mmHg 45%
    09:00 +7°C° 0 mm 6 mps 714 mmHg 42%
    10:00 +8°C° 0 mm 6 mps 714 mmHg 39%
    11:00 +8°C° 0 mm 6 mps 714 mmHg 39%
    12:00 +8°C° 0 mm 7 mps 714 mmHg 39%
    13:00 +8°C° 0 mm 7 mps 714 mmHg 38%
    14:00 +8°C° 0 mm 7 mps 714 mmHg 39%
    15:00 +8°C° 0 mm 7 mps 714 mmHg 41%
    16:00 +7°C° 0 mm 8 mps 714 mmHg 42%
    17:00 +6°C° 0 mm 7 mps 714 mmHg 42%
    18:00 +7°C° 0 mm 6 mps 714 mmHg 42%
    19:00 +6°C° 0 mm 5 mps 714 mmHg 42%
    20:00 +5°C° 0 mm 5 mps 714 mmHg 46%
    21:00 +5°C° 0 mm 4 mps 714 mmHg 50%
    22:00 +4°C° 0 mm 3 mps 714 mmHg 54%
    23:00 +3°C° 0 mm 3 mps 714 mmHg 57%

    29 June, Saturday

    Time Temperature Precipitation Wind Pressure Humidity
    00:00 +3°C° 0 mm 3 mps 713 mmHg 60%
    01:00 +3°C° 0 mm 3 mps 713 mmHg 63%
    02:00 +4°C° 0 mm 2 mps 713 mmHg 63%
    03:00 +4°C° 0 mm 2 mps 713 mmHg 63%
    04:00 +5°C° 0 mm 2 mps 713 mmHg 63%
    05:00 +6°C° 0 mm 2 mps 713 mmHg 59%
    06:00 +7°C° 0 mm 2 mps 713 mmHg 55%
    07:00 +7°C° 0 mm 2 mps 713 mmHg 51%
    08:00 +8°C° 0 mm 3 mps 713 mmHg 48%
    09:00 +9°C° 0 mm 3 mps 713 mmHg 45%
    10:00 +10°C° 0 mm 4 mps 713 mmHg 42%
    11:00 +10°C° 0 mm 4 mps 713 mmHg 41%
    12:00 +10°C° 0 mm 4 mps 713 mmHg 40%
    13:00 +9°C° 0 mm 5 mps 713 mmHg 38%
    14:00 +9°C° 0 mm 5 mps 713 mmHg 38%
    15:00 +9°C° 0 mm 5 mps 713 mmHg 38%
    16:00 +9°C° 0 mm 5 mps 713 mmHg 38%
    17:00 +10°C° 0 mm 4 mps 713 mmHg 40%
    18:00 +8°C° 0 mm 4 mps 713 mmHg 42%
    19:00 +8°C° 0 mm 4 mps 713 mmHg 44%
    20:00 +8°C° 0 mm 3 mps 713 mmHg 51%
    21:00 +5°C° 0 mm 3 mps 713 mmHg 58%
    22:00 +4°C° 0 mm 3 mps 712 mmHg 65%
    23:00 +3°C° 0 mm 3 mps 712 mmHg 70%
    Show more